Vertical_Velocity
-1 -3 2 17 3 5 -2 -11 -2 0 -1 5 -3 2 1 10 -1 -3 4 7 -3 -3 -1 2 3 5 2 3 -5 2 -3 -1 -2 5 3 -1 -2 -1 0 -1 0 2 2 4 2 -0 -1 -1 -1
-2 1 3 4 4 3 -7 -5 1 -0 3 -2 -7 2 -4 5 -2 -3 5 1 -1 -0 0 -1 2 -2 1 -0 -3 -2 -3 1 -1 -0 -2 2 1 4 -1 1 -1 -1 -2 0 -1 -0 0 -1 0
6 -0 6 0 0 -2 -4 -2 1 6 2 -2 -1 7 3 4 4 0 -2 13 -5 -0 -0 -0 -1 1 3 -4 0 -1 -2 -0 -0 -0 -0 -3 -0 1 0 1 0 1 1 -0 -1 -0 2 1 1
-0 1 -2 4 -3 -12 -0 -3 1 2 10 4 2 -2 -6 2 0 -12 -7 16 -0 -3 -0 -1 1 1 2 1 -1 -1 -2 -2 0 -1 0 -1 -0 -0 -2 -0 1 -1 -0 -0 -3 1 -5 0 1
14 5 2 2 -6 -4 -1 1 -3 0 -0 5 -3 9 0 11 7 -5 13 4 -7 -1 0 2 2 1 1 -1 -0 0 2 -2 -5 -0 -1 -1 -2 -1 0 -2 -1 -1 -3 -3 -2 -3 -1 1 -1
6 3 3 -0 -3 -4 -0 1 -5 -1 -0 11 -5 -4 1 16 -2 -9 6 -2 0 -1 0 1 -1 0 0 0 2 -1 -3 -2 -2 -3 0 1 0 -2 -1 3 -0 -1 -1 -2 -2 -1 -0 2 0
0 1 -3 -2 -3 1 -2 -1 -1 -3 -1 10 -12 -3 -3 13 3 -5 -0 -4 -1 1 -2 0 1 1 -2 -1 -4 -2 -0 0 2 1 -1 -1 0 2 -0 -1 0 -0 -1 -0 1 -0 -2 2 -0
-1 2 2 -2 -2 -8 1 -1 1 -1 3 14 -14 -2 -1 7 -2 0 -2 0 3 0 0 1 1 0 -3 -3 1 0 -1 0 -1 2 1 -1 0 -1 0 0 -1 -1 -1 -1 0 -3 -2 2 -1
2 4 -0 -6 2 -10 6 -2 2 11 -6 1 11 -15 -18 5 -6 8 1 8 5 8 -0 -2 -0 -0 -1 1 1 -1 -0 -3 -1 -1 1 1 -0 0 -0 -0 -0 -0 1 -0 -1 0 -0 -0 1
3 2 -6 -5 -3 -1 1 -5 -1 -3 4 8 0 7 7 -0 -5 2 -1 -2 3 1 1 0 -1 -1 -1 -1 -2 -3 -1 0 1 2 -0 -1 -2 -0 -0 -1 -1 -2 0 1 1 -1 -2 1 1
-3 -4 -3 -3 -6 12 -2 4 1 -1 3 -4 -8 -4 -0 -2 2 -1 5 1 -4 -2 -3 -1 -2 5 -2 -1 -0 1 -3 -0 -1 0 0 1 -0 1 -0 -1 -1 -1 -1 -0 -1 1 0 1 -1
0 -1 1 -9 3 -2 -0 1 3 1 -6 -7 -2 2 -3 -3 -1 -4 -4 5 2 3 -5 2 -4 1 -2 1 -2 -0 -3 -1 -1 -0 -1 -1 -3 -3 0 0 -1 -2 -1 1 1 -1 1 1 1
4 -1 1 7 -0 -2 3 -0 -8 -2 8 11 3 2 -2 2 -1 5 -2 -2 8 4 1 -1 -3 -2 2 3 -2 1 -2 -1 -1 -1 -1 2 -2 0 -2 -1 1 1 3 1 2 2 0 1 1
-7 0 -3 3 -0 -2 1 0 -4 5 3 7 -2 -1 -1 -1 -4 -1 -2 11 -2 -1 -3 -2 -2 -3 2 3 1 5 -1 5 -2 -2 -0 -1 -1 1 -0 -0 -1 -2 -2 -2 -2 -1 -1 -0 -1
-4 1 3 2 -1 -1 0 5 -2 -3 14 1 3 1 3 0 1 -3 -6 3 4 -1 -3 -3 -1 1 -1 -3 -2 4 1 -1 2 -2 -1 4 -1 1 -1 -1 -2 -1 0 -0 0 0 -1 -1 -1
-0 2 2 -0 1 -2 -2 -4 -1 3 -2 3 1 -2 2 1 -3 -4 -4 -2 4 3 -3 2 1 -2 -1 -2 1 1 2 -2 -0 0 -3 2 2 -0 -2 -1 -2 0 -0 0 -1 -1 0 1 1
5 -2 1 7 -1 -1 -5 -1 -0 4 3 1 3 -3 1 1 3 8 -6 -7 1 -0 2 -0 1 1 -2 0 -1 1 -2 2 1 -0 -4 -3 -1 -3 -1 -2 -0 -1 1 0 0 0 -1 -2 -1
-3 3 4 -2 0 2 2 -3 3 0 0 -3 1 -0 -1 -0 -8 6 -3 -3 -9 -2 4 -1 0 1 -0 -0 -3 -0 1 2 1 2 2 -1 -2 -3 4 -1 -2 -1 -0 -1 -2 -1 0 -0 0
-2 -1 -2 1 2 -4 -2 -0 -0 -0 6 4 3 1 1 -1 -4 7 1 11 -3 2 -6 -1 -1 -2 3 -0 -1 1 -5 -4 -3 -0 -0 -4 -1 -3 -2 -2 -1 -2 -1 -1 -2 -1 0 0 0
1 -0 2 1 3 -3 1 -1 -0 0 -3 -8 -4 2 0 6 4 6 3 8 -1 -6 -1 -1 -0 2 0 5 1 1 -2 0 -0 -6 1 -0 5 -2 -1 -2 -1 -1 0 -0 -1 -0 -1 0 -1
1 -4 0 -7 1 -3 0 1 4 2 2 9 6 -1 1 -5 -5 -2 3 -1 2 1 0 -8 -4 -1 2 2 3 1 2 8 2 -2 -3 -2 -0 -4 -0 -1 -1 -1 -2 -1 -0 -1 -1 -1 1
0 -2 -1 -1 -4 -4 -5 -4 3 1 0 1 4 3 -1 -0 6 2 3 4 -4 -4 -4 -4 -1 -1 1 1 -1 -4 -4 -5 -3 -6 -2 -6 4 -5 -1 -1 -1 -0 -1 -1 -0 -0 0 -1 0
-3 -2 -3 -1 -1 -2 2 -1 -2 1 3 -1 0 2 -1 -6 3 -5 -2 -7 -3 -2 -7 3 1 2 2 1 -3 -3 -1 1 -2 -2 1 -3 3 -1 -2 -1 -0 1 0 -2 -2 -1 0 -1 -1
-1 -5 -3 -1 -2 -3 -4 -7 -6 -2 -10 1 0 4 0 -6 -8 7 3 3 2 3 -2 -6 -3 0 -1 -0 -2 -3 -2 -2 -2 -1 -3 -1 3 -1 -2 1 -2 -2 -2 -0 -0 -1 -0 -0 -0
-1 -3 -1 -5 -3 -7 -1 5 -13 -1 -1 -9 -5 -3 -0 2 -3 -1 0 0 -1 -5 -6 -4 -5 -4 0 1 -2 -3 0 -2 -1 -4 -2 -2 -1 -2 -3 -1 -3 -2 -1 0 1 0 -2 -2 -1
-2 -6 -7 -5 -2 -2 -1 -3 -16 -7 -1 1 1 -5 2 7 1 -6 -2 -3 -7 -1 0 -1 -3 1 2 2 -2 -1 -0 -1 -1 -2 -4 0 -2 -3 -3 -3 -2 -2 -2 -1 -1 0 1 0 -1
-6 2 -5 -2 -1 -3 -4 -2 -10 -1 -1 0 3 5 -1 -6 -3 -7 1 1 2 0 2 -1 0 3 0 -2 0 -1 1 -2 -3 0 -5 -3 0 1 0 1 -1 -2 -0 -1 -2 -0 -1 -0 -0
-2 -5 -7 -3 -3 1 1 -0 -6 -1 -1 -0 -0 -0 4 7 8 8 2 0 1 2 3 1 -1 -2 -3 5 -1 -3 -1 -1 -2 3 -4 -4 -0 -2 0 2 2 -1 1 -0 -0 -1 -3 1 -0
1 3 1 -5 -4 -5 -2 -6 -1 -3 -2 -2 -2 -1 -4 0 3 1 5 4 2 2 -2 -3 -1 1 -2 1 0 -4 -2 -1 2 1 -2 -2 -0 2 -2 0 -2 -5 -2 -1 -2 1 -0 -3 0
-1 -2 -2 -5 -2 -1 -4 -1 1 1 1 -1 4 6 5 3 2 0 -0 1 1 -4 -1 -2 4 -2 0 4 0 1 3 -0 -0 -3 -1 0 0 -1 -3 -1 -1 -1 -0 -3 -1 -1 -3 -1 -4
Height
1483 1488 1492 1496 1504 1495 1493 1481 1464 1468 1470 1474 1474 1478 1488 1491 1491 1512 1511 1514 1515 1518 1523 1525 1528 1530 1533 1534 1538 1541 1543 1545 1546 1549 1550 1551 1552 1554 1555 1556 1558 1559 1559 1559 1559 1560 1561 1562 1563
1483 1488 1492 1492 1500 1499 1488 1467 1467 1466 1471 1477 1480 1482 1487 1500 1500 1507 1512 1516 1517 1520 1524 1527 1530 1532 1534 1536 1539 1542 1546 1548 1550 1551 1552 1553 1555 1556 1558 1559 1560 1561 1561 1561 1562 1563 1564 1565 1567
1484 1488 1491 1490 1489 1492 1478 1459 1461 1467 1473 1479 1482 1486 1492 1505 1506 1508 1514 1518 1520 1523 1525 1529 1532 1535 1537 1539 1542 1545 1548 1551 1552 1554 1555 1557 1558 1559 1560 1561 1563 1563 1564 1564 1565 1566 1567 1569 1570
1483 1488 1488 1486 1482 1472 1471 1463 1461 1468 1476 1480 1483 1494 1501 1505 1507 1510 1515 1518 1521 1524 1528 1530 1534 1537 1539 1541 1544 1548 1550 1553 1554 1556 1558 1559 1560 1562 1563 1564 1564 1565 1566 1567 1568 1569 1571 1572 1572
1482 1482 1484 1483 1477 1466 1462 1461 1465 1470 1475 1479 1484 1498 1503 1509 1510 1513 1517 1520 1523 1525 1529 1532 1536 1539 1541 1544 1547 1550 1552 1554 1556 1558 1560 1562 1563 1564 1565 1566 1567 1568 1569 1570 1571 1572 1573 1574 1575
1477 1474 1480 1483 1476 1463 1458 1459 1465 1471 1475 1480 1489 1496 1507 1510 1511 1515 1517 1522 1524 1526 1530 1534 1538 1541 1544 1547 1550 1552 1555 1557 1559 1560 1562 1563 1565 1567 1567 1568 1569 1570 1571 1572 1573 1574 1576 1576 1577
1468 1469 1472 1471 1471 1466 1459 1458 1465 1470 1474 1479 1486 1497 1508 1510 1514 1517 1518 1524 1526 1529 1532 1535 1539 1543 1546 1549 1552 1555 1557 1559 1560 1562 1563 1565 1567 1568 1569 1570 1571 1572 1574 1575 1576 1577 1578 1579 1579
1464 1465 1467 1464 1466 1465 1455 1459 1465 1467 1472 1479 1483 1498 1507 1509 1512 1518 1520 1525 1528 1530 1534 1537 1540 1544 1547 1551 1554 1556 1558 1560 1562 1564 1565 1567 1568 1569 1571 1573 1574 1575 1576 1577 1578 1579 1580 1581 1582
1462 1466 1467 1464 1460 1456 1452 1459 1464 1466 1471 1478 1484 1487 1495 1505 1512 1518 1521 1525 1529 1533 1536 1539 1541 1545 1548 1551 1555 1557 1559 1561 1563 1565 1568 1569 1569 1571 1573 1574 1576 1577 1578 1579 1580 1581 1582 1583 1584
1455 1461 1458 1454 1452 1451 1452 1457 1463 1468 1472 1479 1484 1489 1496 1504 1511 1516 1520 1524 1528 1532 1537 1539 1542 1546 1549 1552 1555 1558 1560 1563 1565 1567 1568 1570 1571 1573 1574 1576 1577 1578 1580 1581 1582 1583 1583 1584 1585
1450 1454 1451 1452 1450 1451 1452 1456 1463 1468 1475 1477 1482 1490 1497 1505 1511 1516 1521 1525 1528 1533 1537 1540 1543 1547 1550 1553 1556 1559 1561 1564 1566 1568 1570 1571 1573 1574 1576 1577 1578 1580 1581 1582 1583 1584 1584 1585 1586
1451 1451 1451 1449 1451 1451 1454 1456 1461 1467 1472 1477 1481 1486 1493 1502 1509 1515 1520 1526 1529 1532 1536 1541 1544 1548 1552 1554 1557 1560 1563 1565 1567 1569 1570 1572 1574 1575 1577 1579 1580 1581 1582 1583 1584 1584 1585 1585 1586
1446 1448 1451 1451 1451 1453 1454 1457 1461 1467 1469 1475 1480 1488 1495 1503 1508 1516 1521 1527 1530 1532 1536 1541 1544 1548 1552 1555 1558 1561 1564 1566 1567 1569 1571 1573 1575 1577 1578 1580 1581 1581 1583 1583 1584 1584 1585 1586 1586
1442 1446 1449 1451 1452 1454 1457 1458 1461 1469 1471 1474 1479 1488 1495 1501 1506 1514 1520 1525 1529 1531 1536 1540 1544 1549 1552 1554 1558 1562 1565 1567 1568 1569 1572 1573 1575 1576 1578 1579 1580 1581 1582 1583 1584 1585 1585 1586 1587
1440 1450 1450 1451 1452 1454 1457 1463 1464 1467 1470 1476 1482 1489 1495 1501 1506 1513 1518 1523 1527 1531 1535 1539 1544 1548 1552 1555 1558 1562 1565 1567 1569 1570 1572 1574 1575 1576 1577 1579 1579 1581 1582 1583 1584 1585 1586 1587 1588
1443 1446 1456 1450 1452 1454 1459 1472 1461 1465 1469 1477 1484 1490 1494 1500 1505 1511 1517 1522 1527 1531 1534 1539 1543 1547 1550 1554 1558 1561 1564 1567 1569 1570 1572 1574 1575 1577 1578 1579 1579 1581 1582 1583 1584 1585 1586 1587 1587
1442 1451 1450 1453 1450 1453 1460 1463 1461 1464 1467 1476 1482 1488 1494 1499 1505 1509 1514 1519 1525 1528 1533 1537 1542 1546 1549 1553 1556 1560 1563 1566 1568 1570 1571 1574 1575 1577 1578 1578 1579 1580 1581 1582 1584 1585 1586 1586 1588
1435 1442 1445 1450 1450 1452 1460 1461 1458 1462 1466 1472 1480 1486 1493 1496 1501 1507 1511 1516 1523 1528 1531 1536 1540 1544 1548 1552 1555 1559 1562 1565 1568 1570 1572 1573 1575 1577 1579 1579 1579 1580 1581 1582 1583 1584 1585 1586 1587
1428 1434 1443 1444 1446 1454 1460 1461 1461 1462 1464 1470 1477 1482 1489 1492 1498 1504 1509 1515 1518 1524 1529 1532 1537 1541 1546 1550 1552 1556 1559 1562 1567 1569 1571 1572 1574 1575 1577 1577 1579 1580 1580 1581 1582 1583 1584 1585 1587
1428 1434 1441 1441 1444 1453 1458 1462 1459 1461 1462 1464 1470 1477 1484 1489 1495 1501 1506 1512 1515 1519 1525 1529 1534 1539 1543 1547 1550 1553 1557 1561 1564 1567 1569 1572 1573 1574 1575 1576 1578 1579 1580 1581 1581 1582 1583 1584 1585
1429 1433 1436 1449 1451 1453 1456 1465 1461 1461 1463 1464 1469 1475 1482 1486 1490 1496 1502 1507 1512 1517 1522 1526 1531 1536 1541 1545 1548 1551 1555 1558 1561 1564 1567 1570 1572 1573 1574 1575 1577 1578 1579 1579 1580 1581 1581 1583 1584
1433 1426 1432 1446 1456 1475 1457 1482 1464 1462 1464 1463 1465 1470 1476 1484 1488 1493 1497 1502 1507 1512 1519 1524 1529 1533 1538 1541 1543 1545 1549 1553 1557 1561 1564 1568 1570 1571 1572 1574 1575 1577 1577 1578 1579 1579 1580 1580 1582
1430 1424 1435 1444 1456 1459 1461 1476 1461 1460 1467 1463 1462 1468 1472 1479 1484 1488 1492 1498 1503 1509 1514 1520 1525 1530 1534 1536 1539 1542 1547 1550 1555 1558 1562 1564 1567 1569 1570 1572 1574 1575 1576 1577 1577 1578 1578 1579 1580
1427 1432 1442 1450 1461 1488 1461 1471 1462 1454 1455 1461 1461 1464 1469 1474 1481 1485 1490 1494 1499 1505 1510 1516 1521 1525 1529 1530 1534 1538 1542 1546 1550 1554 1557 1560 1564 1566 1568 1570 1572 1573 1575 1576 1576 1576 1577 1578 1579
1430 1437 1471 1483 1490 1484 1458 1469 1456 1442 1444 1448 1455 1460 1464 1468 1474 1480 1485 1489 1494 1499 1504 1509 1514 1517 1522 1525 1528 1533 1538 1542 1546 1549 1552 1555 1559 1561 1564 1567 1568 1571 1573 1574 1575 1575 1576 1577 1578
1431 1432 1462 1482 1481 1475 1457 1471 1455 1436 1439 1438 1442 1450 1458 1466 1471 1476 1479 1483 1487 1490 1495 1500 1506 1511 1516 1519 1523 1528 1533 1538 1542 1544 1547 1551 1554 1557 1561 1563 1565 1567 1569 1572 1573 1574 1574 1575 1576
1438 1440 1431 1442 1441 1468 1464 1449 1442 1436 1439 1439 1444 1448 1453 1460 1465 1468 1473 1477 1481 1486 1489 1493 1499 1505 1511 1515 1518 1523 1528 1531 1536 1539 1542 1547 1551 1553 1556 1558 1560 1563 1565 1568 1570 1572 1573 1573 1574
1429 1430 1449 1444 1469 1462 1463 1459 1460 1445 1444 1443 1444 1448 1453 1455 1460 1465 1469 1473 1477 1482 1487 1492 1495 1499 1503 1509 1513 1517 1521 1526 1530 1534 1536 1540 1545 1549 1551 1554 1556 1558 1561 1564 1566 1567 1569 1571 1571
1435 1434 1435 1436 1448 1466 1469 1462 1438 1438 1438 1443 1445 1448 1452 1456 1460 1464 1469 1472 1476 1481 1484 1487 1491 1494 1498 1502 1506 1510 1514 1519 1523 1527 1530 1534 1540 1543 1545 1550 1552 1554 1556 1559 1561 1563 1564 1566 1568
1428 1431 1435 1451 1449 1453 1458 1457 1443 1441 1442 1443 1447 1450 1452 1455 1459 1464 1468 1472 1475 1477 1480 1481 1484 1488 1490 1495 1499 1502 1507 1511 1515 1519 1524 1528 1533 1536 1539 1543 1545 1548 1550 1552 1555 1556 1559 1560 1562